Content
SEND FEEDBACK

Daily
Averages
Monthly
Summary
United States of America

GREENVILLE, KENTUCKY


Home > North America > United States > Kentucky
Elevation: 52 feet     Latitude: 37 12N     Longitude: 087 12W

WEATHER
 
SELECT A DAY
Number of Records: 65,364;   Date Range: 10/21/11 - 7/21/14
 
SHARE

PRINT THIS DATA

[ ← Previous Day ]
WEATHER ALMANAC - JANUARY 3, 2013
[ Next Day → ]
[ °C ]   °F
Weather ElementAverageHighLow
Temperature29.8 °F41.2 °F (2:35 pm)20.8 °F (6:55 am)
Dewpoint25.3 °F30 °F (1:35 pm)19.8 °F (6:55 am)
Humidity84.4 %98 % (4:55 am)63 % (2:15 pm)
Barometer30.34 in30.43 in (9:35 pm)30.25 in (12:35 am)
Wind Speed2.8 mph9.2 mph (8:55 am)
Wind Gust9.2 mph (1:55 pm)
Weather ElementAverage
Visibility9.7 mi
Wind DirectionSE (136.2 °)

Weather ElementTotal
Precipitation---
Heating Degree Days34 (Base 65)
Averaged from 68 records on January 3, 2013
WEATHER CONDITIONS BREAKOUT
WIND DIRECTION BREAKOUT
WEATHER BY HOUR - JANUARY 3, 2013
[ °C ]   °F
Local TimeTemperatureDewpointHumidityBarometerVisibilityWind DirectionWind SpeedGust SpeedPrecipitationEventsConditions
12:35 AM23.5 °F21.0 °F90 %30.25 in10.0 miCalmClear
12:55 AM23.4 °F22.1 °F95 %30.25 in10.0 miCalmClear
1:15 AM23.4 °F21.2 °F91 %30.25 in10.0 miCalmClear
1:35 AM23.0 °F22.1 °F96 %30.25 in10.0 miCalmClear
1:55 AM23.0 °F21.4 °F94 %30.26 in10.0 miCalmClear
2:15 AM23.0 °F21.2 °F93 %30.27 in10.0 miCalmClear
2:35 AM23.5 °F22.8 °F97 %30.28 in10.0 miWSW (250°)3.5 mphClear
2:55 AM23.0 °F22.1 °F96 %30.28 in10.0 miCalmClear
3:15 AM22.8 °F22.1 °F97 %30.28 in10.0 miCalmClear
3:35 AM22.8 °F21.9 °F96 %30.27 in10.0 miCalmClear
3:55 AM23.2 °F22.3 °F96 %30.27 in10.0 miCalmClear
4:15 AM22.8 °F22.1 °F97 %30.27 in10.0 miCalmClear
4:35 AM22.3 °F21.4 °F96 %30.28 in10.0 miCalmClear
4:55 AM21.9 °F21.4 °F98 %30.28 in7.0 miCalmClear
5:15 AM21.9 °F21.2 °F97 %30.29 in7.0 miSW (230°)3.5 mphClear
5:35 AM22.3 °F21.7 °F98 %30.29 in10.0 miWSW (250°)3.5 mphClear
6:15 AM22.1 °F21.0 °F96 %30.31 in10.0 miCalmClear
6:35 AM21.0 °F20.3 °F97 %30.31 in7.0 miCalmClear
6:55 AM20.8 °F19.8 °F96 %30.32 in10.0 miSSW (200°)3.5 mphClear
7:15 AM22.5 °F20.8 °F93 %30.31 in7.0 miSouth (190°)3.5 mphClear
7:35 AM21.9 °F20.3 °F93 %30.31 in7.0 miSW (220°)3.5 mphClear
7:55 AM23.5 °F21.9 °F94 %30.32 in7.0 miSW (220°)3.5 mphClear
8:15 AM26.2 °F23.7 °F90 %30.32 in10.0 miWest (270°)3.5 mphClear
8:35 AM27.7 °F23.2 °F83 %30.32 in10.0 miWest (260°)8.1 mphClear
8:55 AM29.5 °F23.5 °F79 %30.33 in10.0 miWest (260°)9.2 mphClear
9:15 AM30.7 °F24.4 °F77 %30.34 in10.0 miWest (270°)6.9 mphClear
9:35 AM32.0 °F24.6 °F74 %30.34 in10.0 miWNW (290°)8.1 mphClear
9:55 AM32.5 °F24.4 °F72 %30.35 in10.0 miWNW (290°)8.1 mphClear
10:15 AM33.8 °F24.8 °F70 %30.35 in10.0 miWNW (300°)4.6 mphClear
10:35 AM34.3 °F25.3 °F70 %30.35 in10.0 miWest (270°)4.6 mphClear
10:55 AM35.6 °F26.2 °F69 %30.34 in10.0 miWest (270°)3.5 mphClear
11:15 AM36.9 °F27.1 °F68 %30.34 in10.0 miCalmClear
11:35 AM37.8 °F28.2 °F68 %30.33 in10.0 miWest (260°)4.6 mphClear
11:55 AM38.7 °F29.3 °F69 %30.33 in10.0 miCalmClear
12:15 PM39.4 °F29.8 °F69 %30.33 in10.0 miWNW (290°)6.9 mphClear
12:35 PM39.2 °F29.8 °F69 %30.33 in10.0 miWest (280°)8.1 mphClear
12:55 PM39.6 °F29.8 °F68 %30.33 in10.0 miWNW (290°)9.2 mphClear
1:15 PM39.9 °F28.9 °F65 %30.33 in10.0 miWest (270°)9.2 mphClear
1:35 PM40.8 °F30.0 °F65 %30.33 in10.0 miWNW (300°)9.2 mphClear
1:55 PM40.6 °F29.3 °F64 %30.33 in10.0 miNNW (330°)5.8 mph9.2 mphClear
2:15 PM40.5 °F28.8 °F63 %30.34 in10.0 miNNW (340°)5.8 mphClear
2:35 PM41.2 °F29.8 °F64 %30.34 in10.0 miWNW (300°)8.1 mphClear
2:55 PM41.2 °F29.5 °F63 %30.35 in10.0 miNNW (340°)6.9 mphClear
3:55 PM39.0 °F28.0 °F65 %30.35 in10.0 miNNW (340°)6.9 mphClear
4:15 PM37.8 °F28.0 °F68 %30.35 in10.0 miNNW (330°)3.5 mphClear
4:35 PM36.9 °F27.3 °F68 %30.35 in10.0 miNW (310°)4.6 mphClear
4:55 PM36.9 °F27.0 °F67 %30.36 in10.0 miCalmClear
5:15 PM34.5 °F27.5 °F76 %30.36 in10.0 miCalmClear
5:35 PM33.8 °F28.6 °F81 %30.37 in10.0 miCalmClear
5:55 PM32.7 °F27.5 °F81 %30.37 in10.0 miCalmClear
6:15 PM32.5 °F28.0 °F83 %30.38 in10.0 miCalmClear
6:35 PM31.8 °F27.5 °F84 %30.38 in10.0 miCalmClear
6:55 PM30.9 °F27.5 °F87 %30.38 in10.0 miCalmClear
7:15 PM30.0 °F26.8 °F88 %30.38 in10.0 miCalmClear
7:35 PM30.2 °F27.5 °F90 %30.39 in10.0 miCalmClear
7:55 PM29.3 °F26.6 °F90 %30.39 in10.0 miCalmClear
8:15 PM28.2 °F26.4 °F93 %30.39 in10.0 miCalmClear
8:35 PM28.2 °F26.2 °F92 %30.40 in10.0 miCalmClear
8:55 PM27.9 °F25.5 °F91 %30.41 in10.0 miWSW (250°)3.5 mphClear
9:15 PM27.1 °F25.9 °F95 %30.42 in10.0 miWSW (240°)5.8 mphClear
9:35 PM28.2 °F26.8 °F94 %30.43 in10.0 miWSW (250°)5.8 mphMostly Cloudy
9:55 PM29.3 °F27.5 °F93 %30.43 in10.0 miWest (270°)4.6 mphOvercast
10:15 PM29.8 °F28.4 °F94 %30.42 in10.0 miCalmOvercast
10:35 PM27.7 °F26.6 °F96 %30.43 in7.0 miSW (230°)3.5 mphScattered Clouds
10:55 PM28.2 °F27.1 °F96 %30.43 in10.0 miCalmScattered Clouds
11:15 PM27.5 °F26.8 °F97 %30.42 in10.0 miCalmMostly Cloudy
11:35 PM28.2 °F27.3 °F96 %30.41 in10.0 miCalmOvercast
11:55 PM27.3 °F26.6 °F97 %30.40 in10.0 miCalmScattered Clouds
Hourly data recorded from K2I0, located miles away from Greenville, Kentucky







STORIES FROM OUR PARTNERS